Tracking 31027 objects as of 19-Jul-2025
HD Live streaming from Space Station
objects crossing your sky now

GRUS-1C

Track GRUS-1C now!
10-day predictions


NORAD ID: 47933
Int'l Code: 2021-022B
Perigee: 570.5 km
Apogee: 591.0 km
Inclination: 97.6 °
Period: 96.1 minutes
Semi major axis: 6951 km
RCS: Unknown
Launch date: March 22, 2021
Source: Japan (JPN)
Launch site: TYURATAM MISSILE AND SPACE COMPLEX (TTMTR)
Your satellite tracking list
IRIDIUM 33 DEB
Track 1 satellite(s)




NASA's NSSDC Master Catalog

Two Line Element Set (TLE):
1 47933U 21022B   25199.90965165  .00001744  00000-0  15299-3 0  9995
2 47933  97.5808  88.3469 0014734  10.5106 349.6421 14.97827928235999
Source of the keplerian elements: AFSPC